This is the latest recevied weather packets stored in our database for station/object W0AKY-13. If no packets are shown the sender has not sent any weather packets the latest 10 day(s).
| Time | Temp. | Humidity | Pressure | Rain* | Wind** | Luminosity | Snow |
|---|---|---|---|---|---|---|---|
| 1778089299 | 13.89° C | 32% | 1020.4 hPa | 0 mm | - | 770 W/m² | - |
| 1778088997 | 13.33° C | 35% | 1020.4 hPa | 0 mm | - | 251 W/m² | - |
| 1778088694 | 13.33° C | 34% | 1020.4 hPa | 0 mm | - | 413 W/m² | - |
| 1778088391 | 13.33° C | 34% | 1020.2 hPa | 0 mm | - | 444 W/m² | - |
| 1778088081 | 13.33° C | 35% | 1020.6 hPa | 0 mm | - | 403 W/m² | - |
| 1778087780 | 13.89° C | 35% | 1020.3 hPa | 0 mm | - | 543 W/m² | - |
| 1778087477 | 13.89° C | 33% | 1020.5 hPa | 0 mm | - | 627 W/m² | - |
| 1778087174 | 13.33° C | 34% | 1020.4 hPa | 0 mm | - | 675 W/m² | - |
| 1778086871 | 12.78° C | 35% | 1020.6 hPa | 0 mm | - | 612 W/m² | - |
| 1778086569 | 12.78° C | 36% | 1020.7 hPa | 0 mm | - | 623 W/m² | - |
| 1778086265 | 12.78° C | 33% | 1020.9 hPa | 0 mm | - | 654 W/m² | - |
| 1778085962 | 12.78° C | 35% | 1020.8 hPa | 0 mm | - | 648 W/m² | - |
| 1778085660 | 12.78° C | 35% | 1020.7 hPa | 0 mm | - | 601 W/m² | - |
| 1778085355 | 12.78° C | 34% | 1020.6 hPa | 0 mm | - | 653 W/m² | - |
| 1778085051 | 12.78° C | 37% | 1020.6 hPa | 0 mm | - | 557 W/m² | - |
| 1778084748 | 12.22° C | 36% | 1020.7 hPa | 0 mm | - | 567 W/m² | - |
| 1778084445 | 12.78° C | 36% | 1020.6 hPa | 0 mm | - | 588 W/m² | - |
| 1778084143 | 11.67° C | 39% | 1020.6 hPa | 0 mm | - | 569 W/m² | - |
| 1778083839 | 11.67° C | 38% | 1020.8 hPa | 0 mm | - | 348 W/m² | - |
| 1778083537 | 12.22° C | 45% | 1020.6 hPa | 0 mm | - | 344 W/m² | - |
| 1778083234 | 11.67° C | 39% | 1020.8 hPa | 0 mm | - | 379 W/m² | - |
| 1778082932 | 11.67° C | 40% | 1020.6 hPa | 0 mm | - | 233 W/m² | - |
| 1778081823 | 11.67° C | 40% | 1020.8 hPa | 0 mm | - | 376 W/m² | - |
| 1778081521 | 11.11° C | 41% | 1020.5 hPa | 0 mm | - | 391 W/m² | - |
| 1778081217 | 11.11° C | 43% | 1020.6 hPa | 0 mm | - | 391 W/m² | - |
* Rain latest hour (hover to see other rain measurements)
** Current wind speed in m/s (hover to see current wind gust speed)